Location: Bremen
(53.0793°N, 8.8017°E)
Time: 01:54:19
(UTC+01:00)

deb Explorer IX - Pass Details

Date: 08 December 2021
Orbit: 544 x 1082 km, 38.8° (Epoch: 16 January)

Event Time Altitude Azimuth Distance (km) Brightness Sun altitude
Rises 09:22:49 0° 218° (SW) 3,246 ? 5.3°
Reaches altitude 10° 09:27:06 10° 187° (S) 2,171 ? 5.7°
Maximum altitude 09:28:46 12° 167° (SSE) 2,010 ? 5.9°
Drops below altitude 10° 09:30:23 10° 147° (SSE) 2,066 ? 6.0°
Sets 09:34:12 0° 114° (ESE) 2,872 ? 6.4°
